This demonstration page uses our WeatherBlox Daily Observations layout. Learn more.

Hourly Observations for February 16, 2019

Temp ( °F °C ) Dew Point ( °F °C ) Humidity (%) Winds ( mph kmh ) Pressure ( in mb ) Visibility ( mi km ) Precip ( " mm )
12:15 am 00:15 Cloudy with Light Snow 11 -11.5 10 -12.2 95 95 SE 5 7 30.24 1024 5 8.0467 0 0
12:35 am 00:35 Cloudy with Light Snow 11 -11.5 10 -12.2 95 95 ESE 7 11 30.23 1024 7 11.26538 0 0
12:55 am 00:55 Cloudy with Light Snow 11 -11.5 10 -12.2 95 95 SE 7 11 30.22 1023 10 16.0934 0 0
1:15 am 01:15 Cloudy 11 -11.5 10 -12.1 95 95 E 7 11 30.21 1023 10 16.0934 0 0
1:35 am 01:35 Cloudy 11 -11.5 10 -12.1 95 95 ESE 8 13 30.2 1023 10 16.0934 0 0
1:55 am 01:55 Cloudy 11 -11.5 10 -12.2 95 95 ESE 7 11 30.2 1023 10 16.0934 0 0
2:15 am 02:15 Cloudy with Light Snow 12 -11.3 10 -12.1 94 94 SE 7 11 30.21 1023 10 16.0934 0 0
2:35 am 02:35 Cloudy 11 -11.5 10 -12.2 95 95 SE 6 9 30.2 1023 10 16.0934 0 0
2:55 am 02:55 Cloudy 12 -11.3 10 -12.1 94 94 SE 6 9 30.18 1022 10 16.0934 0 0
3:15 am 03:15 Cloudy with Light Snow 11 -11.5 10 -12.2 95 95 SE 6 9 30.18 1022 10 16.0934 0 0
3:35 am 03:35 Cloudy 11 -11.5 10 -12.2 95 95 SE 8 13 30.18 1022 10 16.0934 0 0
3:55 am 03:55 Cloudy with Light Snow 12 -11.3 10 -12 95 95 SE 7 11 30.17 1022 7 11.26538 0 0
4:15 am 04:15 Cloudy with Mist and Fog 12 -11.3 10 -12 95 95 ESE 8 13 30.16 1021 5 8.0467 0 0
4:35 am 04:35 Cloudy 12 -11.3 10 -12 95 95 SE 9 15 30.16 1021 7 11.26538 0 0
4:55 am 04:55 Cloudy with Light Snow 12 -11.3 10 -12.1 94 94 SE 8 13 30.16 1021 7 11.26538 0 0
5:15 am 05:15 Cloudy 12 -11.3 10 -12.2 93 93 ESE 8 13 30.15 1021 7 11.26538 0 0
5:35 am 05:35 Cloudy with Mist and Fog 12 -11.3 10 -12.1 94 94 SE 13 20 30.14 1021 5 8.0467 0 0
5:55 am 05:55 Cloudy with Light Snow 12 -11.3 10 -12 95 95 SE 12 19 30.13 1020 7 11.26538 0 0
6:15 am 06:15 Cloudy 11 -11.4 10 -12.1 95 95 ESE 13 20 30.12 1020 7 11.26538 0 0
6:35 am 06:35 Cloudy with Light Snow 12 -11.3 10 -12 95 95 SE 10 17 30.11 1020 7 11.26538 0 0
6:55 am 06:55 Cloudy with Light Snow 12 -11.3 10 -12 95 95 ESE 10 17 30.11 1020 7 11.26538 0 0
7:15 am 07:15 Cloudy with Light Snow 12 -11.3 11 -11.8 96 96 ESE 10 17 30.11 1020 5 8.0467 0 0
7:35 am 07:35 Cloudy with Light Snow 12 -11.3 11 -11.8 96 96 ESE 10 17 30.11 1020 4 6.43736 0 0
7:55 am 07:55 Cloudy with Light Snow 12 -11.2 11 -11.6 97 97 ESE 10 17 30.11 1020 2.5 4.02335 0 0
8:15 am 08:15 Cloudy with Light Snow 12 -11.2 11 -11.6 97 97 ESE 9 15 30.1 1019 1.75 2.816345 0 0
8:35 am 08:35 Cloudy with Light Snow 12 -11.1 11 -11.5 97 97 ESE 12 19 30.08 1019 1.5 2.41401 0 0
8:55 am 08:55 Cloudy with Light Snow 12 -11 11 -11.5 96 96 SE 10 17 30.07 1018 1.75 2.816345 0 0
9:15 am 09:15 Cloudy with Light Snow 12 -11 11 -11.5 96 96 ESE 13 20 30.06 1018 1.75 2.816345 0 0
9:35 am 09:35 Cloudy with Light Snow 12 -11 11 -11.4 97 97 ESE 12 19 30.06 1018 2.5 4.02335 0 0
9:55 am 09:55 Cloudy with Light Snow 13 -10.7 12 -11.1 97 97 SE 10 17 30.05 1018 2 3.21868 0 0
10:15 am 10:15 Cloudy with Light Snow 13 -10.5 12 -11 96 96 SE 12 19 30.04 1017 2 3.21868 0 0
10:35 am 10:35 Cloudy with Light Snow 13 -10.4 13 -10.8 97 97 SE 12 19 30.03 1017 2 3.21868 0 0
10:55 am 10:55 Cloudy with Light Snow 14 -10.2 13 -10.6 97 97 SE 13 20 30.02 1016 2.5 4.02335 0 0
11:15 am 11:15 Cloudy with Light Snow 14 -10 13 -10.5 96 96 SE 13 20 30 1016 3 4.82802 0 0
11:35 am 11:35 Cloudy with Mist and Fog 14 -9.8 14 -10.2 97 97 SE 13 20 29.99 1016 2.5 4.02335 0 0
11:55 am 11:55 Cloudy with Light Snow 15 -9.7 14 -10.1 97 97 ESE 10 17 29.98 1015 4 6.43736 0 0
12:15 pm 12:15 Cloudy with Mist and Fog 15 -9.6 14 -10 97 97 ESE 13 20 29.97 1015 3 4.82802 0 0
12:35 pm 12:35 Cloudy with Mist and Fog 15 -9.5 15 -9.7 98 98 SE 13 20 29.96 1014 5 8.0467 0 0
12:55 pm 12:55 Cloudy 15 -9.3 15 -9.6 98 98 ESE 14 22 29.94 1014 7 11.26538 0 0
1:15 pm 13:15 Cloudy 15 -9.3 15 -9.6 98 98 ESE 12 19 29.93 1013 7 11.26538 0 0
1:35 pm 13:35 Cloudy with Mist and Fog 15 -9.5 15 -9.7 98 98 ESE 12 19 29.9 1012 4 6.43736 0 0
1:55 pm 13:55 Cloudy 15 -9.6 14 -10 97 97 ESE 13 20 29.89 1012 7 11.26538 0 0
2:15 pm 14:15 Cloudy with Mist and Fog 15 -9.6 14 -10 97 97 ESE 13 20 29.88 1012 5 8.0467 0 0
2:35 pm 14:35 Cloudy with Mist and Fog 15 -9.6 14 -10 97 97 ESE 10 17 29.88 1012 3 4.82802 0 0
2:55 pm 14:55 Cloudy with Light Snow 15 -9.5 14 -9.9 97 97 E 10 17 29.87 1011 1.5 2.41401 0 0
3:15 pm 15:15 Cloudy with Light Snow 15 -9.6 14 -10 97 97 E 7 11 29.88 1012 1.5 2.41401 0 0
3:35 pm 15:35 Cloudy with Mist and Fog 15 -9.7 14 -10 98 98 E 12 19 29.88 1012 1 1.60934 0 0
3:55 pm 15:55 Cloudy with Light Snow 15 -9.7 14 -10.1 97 97 E 12 19 29.87 1011 0.75 1.207005 0 0
4:15 pm 16:15 Cloudy with Light Snow 14 -10 13 -10.5 96 96 E 12 19 29.87 1012 0.5 0.80467 0 0
4:35 pm 16:35 Cloudy with Light Snow 14 -9.8 13 -10.3 96 96 E 10 17 29.86 1011 0.75 1.207005 0 0
4:55 pm 16:55 Cloudy with Light Snow 14 -10 13 -10.5 96 96 E 8 13 29.86 1011 0.75 1.207005 0 0
5:15 pm 17:15 Cloudy with Light Snow 14 -10.1 13 -10.7 95 95 ENE 9 15 29.86 1011 1.25 2.011675 0 0
5:35 pm 17:35 Cloudy with Snow 14 -10 13 -10.6 95 95 ENE 6 9 29.87 1012 0.5 0.80467 0.01 0.254
6:15 pm 18:15 Cloudy with Light Snow 14 -9.9 13 -10.4 96 96 ENE 6 9 29.88 1012 0.75 1.207005 0 0
6:35 pm 18:35 Cloudy with Light Snow 14 -9.8 13 -10.5 95 95 E 9 15 29.87 1012 1.75 2.816345 0 0
6:55 pm 18:55 Cloudy with Light Snow 14 -9.8 13 -10.3 96 96 ENE 3 6 29.9 1013 1.5 2.41401 0 0
7:15 pm 19:15 Cloudy with Snow 14 -9.8 13 -10.5 95 95 ENE 6 9 29.9 1013 0.75 1.207005 0 0
7:35 pm 19:35 Cloudy with Snow 14 -9.8 13 -10.3 96 96 E 5 7 29.91 1013 0.75 1.207005 0 0
7:55 pm 19:55 Cloudy with Light Snow 14 -9.8 13 -10.4 95 95 E 6 9 29.91 1013 1.5 2.41401 0 0
8:15 pm 20:15 Cloudy with Light Snow 14 -9.8 13 -10.3 96 96 E 5 7 29.91 1013 1.5 2.41401 0 0
8:35 pm 20:35 Cloudy with Light Snow 14 -10 13 -10.5 96 96 E 7 11 29.91 1013 2 3.21868 0.01 0.254
8:55 pm 20:55 Cloudy with Light Snow 14 -10 13 -10.5 96 96 ENE 5 7 29.9 1013 2.5 4.02335 0.01 0.254
9:15 pm 21:15 Cloudy with Light Snow 14 -10 13 -10.6 95 95 E 5 7 29.91 1013 3 4.82802 0 0
9:35 pm 21:35 Cloudy with Light Snow 14 -10 13 -10.5 96 96 Calm 29.91 1013 3 4.82802 0.01 0.254
9:55 pm 21:55 Cloudy with Light Snow 14 -10 13 -10.5 96 96 Calm 29.92 1013 2 3.21868 0.01 0.254
10:15 pm 22:15 Cloudy with Light Snow 14 -10 13 -10.5 96 96 Calm 29.93 1014 2 3.21868 0.01 0.254
10:35 pm 22:35 Cloudy with Light Snow 14 -10 13 -10.5 96 96 Calm 29.93 1014 2 3.21868 0.02 0.508
10:55 pm 22:55 Cloudy with Light Snow 14 -10 13 -10.5 96 96 Calm 29.92 1013 2 3.21868 0.02 0.508
11:15 pm 23:15 Cloudy with Light Snow 14 -10 13 -10.5 96 96 Calm 29.92 1013 2 3.21868 0.01 0.254
11:35 pm 23:35 Cloudy with Light Snow 14 -10.1 13 -10.6 96 96 Calm 29.92 1013 3 4.82802 0.01 0.254
11:55 pm 23:55 Cloudy with Light Snow 13 -10.5 12 -11 96 96 Calm 29.94 1014 4 6.43736 0.01 0.254

Powered by AerisWeather